GW4588 Weather Reports


time (UTC)temp
C
wind
direction
speed
KPH
gust
KPH
rain 1hr
cm
rain 24hr
cm
rain mn
cm
humidity
%
barometer
mb
20260504160314 14 229 12.9 25.7 0.00 0.00 0.00 43 1009.1
20260504150739 14 212 8.0 33.8 0.00 0.00 0.00 44 1009.4
20260504150236 14 292 4.8 27.4 0.00 0.00 0.00 46 1009.5
20260504141205 13 333 4.8 14.5 0.00 0.00 0.00 48 1009.4
20260504140702 13 248 22.5 29.0 0.00 0.00 0.00 45 1009.6
20260504140157 13 255 11.3 30.6 0.00 0.00 0.00 46 1009.6
20260504130626 11 301 9.7 14.5 0.00 0.00 0.00 51 1010.1
20260504130123 11 207 6.4 22.5 0.00 0.00 0.00 52 1009.9
20260504110515 5 167 1.6 11.3 0.00 0.00 0.00 67 1010.4
20260504100436 3 190 0.0 3.2 0.00 0.00 0.00 75 1009.9
20260504081829 4 180 0.0 3.2 0.00 0.00 0.00 72 1010.1
20260504081326 4 143 3.2 4.8 0.00 0.00 0.00 72 1009.8
20260504080821 5 164 4.8 4.8 0.00 0.00 0.00 70 1009.8
20260504080319 5 134 4.8 4.8 0.00 0.00 0.00 69 1009.9
20260504070246 5 113 0.0 3.2 0.00 0.00 0.00 73 1009.7
20260504060207 5 151 3.2 4.8 0.00 0.00 0.00 63 1009.7
20260504050635 5 136 1.6 3.2 0.00 0.00 0.00 61 1010.4
20260504050132 5 212 0.0 4.8 0.00 0.00 0.00 61 1010.4
20260504045629 5 172 3.2 6.4 0.00 0.00 0.00 59 1010.4
20260504045129 5 190 1.6 4.8 0.00 0.00 0.00 60 1010.3
20260504044627 5 174 1.6 3.2 0.00 0.00 0.00 60 1010.5
20260504044124 5 113 0.0 1.6 0.00 0.00 0.00 60 1010.6
20260504043621 5 187 3.2 4.8 0.00 0.00 0.00 58 1010.5
20260504043118 5 193 0.0 6.4 0.00 0.00 0.00 58 1010.4
20260504042615 5 245 8.0 11.3 0.00 0.00 0.00 57 1010.4
20260504042112 5 221 1.6 4.8 0.00 0.00 0.00 57 1010.4
20260504041607 5 178 3.2 4.8 0.00 0.00 0.00 57 1010.2
20260504041104 5 242 3.2 8.0 0.00 0.00 0.00 56 1010.3
20260504040602 5 150 0.0 3.2 0.00 0.00 0.00 59 1009.9
20260504040058 5 344 1.6 8.0 0.00 0.00 0.00 60 1010.1
20260504035555 5 198 1.6 3.2 0.00 0.00 0.00 56 1010.1
20260504035051 5 170 3.2 4.8 0.00 0.00 0.00 54 1010.1
20260504034549 5 189 3.2 6.4 0.00 0.00 0.00 54 1010.1
20260504034046 5 267 3.2 4.8 0.00 0.00 0.00 54 1010.1
20260504033544 5 173 3.2 8.0 0.00 0.00 0.00 55 1010.1
20260504033041 5 161 3.2 8.0 0.00 0.00 0.00 55 1009.9
20260504032538 5 175 0.0 4.8 0.00 0.00 0.00 55 1009.9
20260504032034 5 179 0.0 4.8 0.00 0.00 0.00 54 1010.1
20260504031531 5 95 3.2 4.8 0.00 0.00 0.00 55 1009.7
20260504031027 5 124 0.0 3.2 0.00 0.00 0.00 54 1009.6
20260504030525 5 100 1.6 4.8 0.00 0.00 0.00 53 1009.6
20260504030021 5 185 3.2 4.8 0.00 0.00 0.00 53 1009.7
20260504025518 5 84 1.6 3.2 0.00 0.00 0.00 53 1009.9
20260504025015 5 77 1.6 8.0 0.00 0.00 0.00 52 1009.9
20260504024512 5 266 0.0 4.8 0.00 0.00 0.00 52 1009.8
20260504024009 5 217 0.0 4.8 0.00 0.00 0.00 52 1009.8
20260504023505 5 181 4.8 6.4 0.00 0.00 0.00 52 1009.9
20260504023001 5 123 3.2 6.4 0.00 0.00 0.00 53 1009.8
20260504022457 5 269 3.2 9.7 0.00 0.00 0.00 52 1009.8
20260504021954 5 224 0.0 4.8 0.00 0.00 0.00 53 1010.1
20260504021452 5 105 3.2 8.0 0.00 0.00 0.00 52 1009.8
20260504020949 5 106 3.2 8.0 0.00 0.00 0.00 52 1009.7
20260504020445 5 4 3.2 11.3 0.00 0.00 0.00 53 1009.9
20260504015942 3 58 3.2 6.4 0.00 0.00 0.00 56 1009.7
20260504015438 4 55 4.8 4.8 0.00 0.00 0.00 54 1009.7
20260504014934 5 65 3.2 8.0 0.00 0.00 0.00 52 1009.7
20260504014430 5 32 6.4 6.4 0.00 0.00 0.00 51 1009.6
20260504013927 5 61 1.6 6.4 0.00 0.00 0.00 50 1009.6
20260504013426 5 21 3.2 4.8 0.00 0.00 0.00 52 1009.7
20260504012926 5 101 3.2 4.8 0.00 0.00 0.00 50 1009.7
20260504012425 5 48 1.6 6.4 0.00 0.00 0.00 49 1009.5
20260504011922 5 120 3.2 4.8 0.00 0.00 0.00 48 1009.5
20260504011419 5 125 3.2 3.2 0.00 0.00 0.00 47 1009.5
20260504010914 5 120 3.2 4.8 0.00 0.00 0.00 47 1009.3
20260504010411 5 203 3.2 4.8 0.00 0.00 0.00 46 1009.4
20260504005907 5 274 3.2 12.9 0.00 0.00 0.00 45 1009.1
20260504005403 5 113 1.6 4.8 0.00 0.00 0.00 46 1009.2
20260504004901 5 87 3.2 4.8 0.00 0.00 0.00 47 1009.3
20260504004359 5 77 4.8 6.4 0.00 0.00 0.00 48 1009.0
20260504003855 5 181 1.6 4.8 0.00 0.00 0.00 47 1008.9
20260504003352 5 160 0.0 4.8 0.00 0.00 0.00 47 1008.8
20260504002849 5 151 0.0 3.2 0.00 0.00 0.00 47 1008.7
20260504002345 5 107 3.2 3.2 0.00 0.00 0.00 47 1008.8
20260504001843 5 106 3.2 6.4 0.00 0.00 0.00 47 1008.9
20260504001340 5 275 4.8 8.0 0.00 0.00 0.00 46 1008.8
20260504000837 6 326 1.6 4.8 0.00 0.00 0.00 46 1008.6
20260504000334 6 212 0.0 6.4 0.00 0.00 0.00 46 1008.6
20260503235831 6 257 0.0 1.6 0.00 0.00 0.00 46 1008.5
20260503235329 6 81 3.2 3.2 0.00 0.00 0.00 46 1008.7
20260503234826 6 322 0.0 3.2 0.00 0.00 0.00 46 1008.4
20260503234324 6 229 0.0 6.4 0.00 0.00 0.00 46 1008.4
20260503233822 6 233 0.0 3.2 0.00 0.00 0.00 46 1008.4
20260503233317 7 286 4.8 12.9 0.00 0.00 0.00 43 1008.5
20260503232814 7 237 4.8 14.5 0.00 0.00 0.00 44 1008.4
20260503232311 7 350 4.8 4.8 0.00 0.00 0.00 47 1008.3
20260503231809 7 221 6.4 17.7 0.00 0.00 0.00 43 1008.2
20260503231306 7 339 3.2 11.3 0.00 0.00 0.00 44 1008.2
20260503230802 7 103 0.0 3.2 0.00 0.00 0.00 46 1008.1
20260503230259 7 160 1.6 6.4 0.00 0.00 0.00 43 1008.2
20260503225757 7 243 4.8 8.0 0.00 0.00 0.00 44 1008.2
20260503225252 7 40 4.8 20.9 0.00 0.00 0.00 44 1008.3
20260503224749 7 166 0.0 11.3 0.00 0.00 0.00 42 1008.2
20260503224246 7 290 0.0 14.5 0.00 0.00 0.00 43 1008.1
20260503223744 7 279 3.2 14.5 0.00 0.00 0.00 43 1008.2
20260503223241 8 206 6.4 14.5 0.00 0.00 0.00 43 1008.1
20260503222737 7 338 3.2 6.4 0.00 0.00 0.00 42 1008.1
20260503222236 7 337 4.8 20.9 0.00 0.00 0.00 43 1008.2
20260503221734 7 259 3.2 14.5 0.00 0.00 0.00 43 1008.1
20260503221231 7 206 12.9 16.1 0.00 0.00 0.00 42 1008.0
20260503220727 8 219 6.4 12.9 0.00 0.00 0.00 42 1008.5
20260503220224 8 38 4.8 37.0 0.00 0.00 0.00 44 1008.1
20260503215721 8 243 6.4 12.9 0.00 0.00 0.00 40 1008.2
20260503215218 8 210 4.8 12.9 0.00 0.00 0.00 42 1008.3
20260503214716 8 279 3.2 11.3 0.00 0.00 0.00 43 1008.1
20260503214212 8 294 6.4 11.3 0.00 0.00 0.00 42 1008.1
20260503213711 7 211 8.0 12.9 0.00 0.00 0.00 45 1008.4
20260503213207 7 221 8.0 14.5 0.00 0.00 0.00 46 1008.2
20260503212704 7 206 4.8 14.5 0.00 0.00 0.00 44 1007.8
20260503212202 8 342 0.0 19.3 0.00 0.00 0.00 46 1008.0
20260503211700 7 268 9.7 9.7 0.00 0.00 0.00 44 1008.1
20260503211155 7 20 6.4 11.3 0.00 0.00 0.00 47 1008.1
20260503210651 7 235 3.2 8.0 0.00 0.00 0.00 45 1008.0
20260503210148 7 12 4.8 11.3 0.00 0.00 0.00 46 1008.0
20260503205644 7 18 3.2 11.3 0.00 0.00 0.00 46 1008.0
20260503205140 7 285 8.0 12.9 0.00 0.00 0.00 44 1007.8
20260503204637 8 284 8.0 14.5 0.00 0.00 0.00 43 1008.0
20260503204135 6 308 9.7 32.2 0.00 0.00 0.00 46 1008.0
20260503203631 7 277 6.4 32.2 0.00 0.00 0.00 45 1007.6
20260503203129 7 206 19.3 30.6 0.00 0.00 0.00 43 1007.7
20260503202626 8 290 9.7 17.7 0.00 0.00 0.00 40 1008.1
20260503202124 8 29 6.4 12.9 0.00 0.00 0.00 42 1007.8
20260503201622 7 281 6.4 14.5 0.00 0.00 0.00 43 1007.8
20260503201119 8 11 9.7 14.5 0.00 0.00 0.00 41 1007.8
20260503200615 8 300 4.8 17.7 0.00 0.00 0.00 44 1008.0
20260503200112 8 295 9.7 14.5 0.00 0.00 0.00 42 1007.8
20260503195609 8 31 6.4 9.7 0.00 0.00 0.00 42 1008.0
20260503195105 7 359 4.8 12.9 0.00 0.00 0.00 46 1007.8
20260503194603 7 285 4.8 9.7 0.00 0.00 0.00 44 1007.8
20260503194058 6 339 4.8 19.3 0.00 0.00 0.00 44 1007.8
20260503193555 7 306 8.0 17.7 0.00 0.00 0.00 44 1008.1
20260503193050 7 288 6.4 14.5 0.00 0.00 0.00 44 1008.2
20260503192546 7 268 9.7 20.9 0.00 0.00 0.00 45 1008.1
20260503192042 6 123 9.7 19.3 0.00 0.00 0.00 44 1008.1
20260503191539 7 19 6.4 22.5 0.00 0.00 0.00 44 1008.0
20260503191036 7 152 3.2 12.9 0.00 0.00 0.00 43 1008.0
20260503190533 7 337 4.8 17.7 0.00 0.00 0.00 46 1007.8
20260503190030 7 340 4.8 14.5 0.00 0.00 0.00 43 1008.0
20260503185527 7 269 4.8 17.7 0.00 0.00 0.00 41 1007.8
20260503185026 8 357 8.0 14.5 0.00 0.00 0.00 40 1008.1
20260503184523 8 328 4.8 14.5 0.00 0.00 0.00 40 1007.8
20260503184019 8 1 9.7 35.4 0.00 0.00 0.00 42 1007.8
20260503183516 7 211 8.0 19.3 0.00 0.00 0.00 43 1008.2
20260503183013 7 78 3.2 24.1 0.00 0.00 0.00 44 1007.8
20260503182512 7 244 8.0 16.1 0.00 0.00 0.00 45 1008.1
20260503182009 6 341 8.0 19.3 0.00 0.00 0.00 45 1008.3
20260503181506 6 273 4.8 14.5 0.00 0.00 0.00 48 1008.1
20260503181002 6 304 1.6 22.5 0.00 0.00 0.00 47 1008.1
20260503180500 6 287 11.3 12.9 0.00 0.00 0.00 48 1008.0
20260503175956 6 344 11.3 16.1 0.00 0.00 0.00 46 1007.8
20260503175454 6 40 3.2 17.7 0.00 0.00 0.00 46 1008.0
20260503174945 7 190 12.9 35.4 0.00 0.00 0.00 45 1008.1
20260503174443 7 159 4.8 14.5 0.00 0.00 0.00 44 1007.8
20260503173943 7 223 8.0 16.1 0.00 0.00 0.00 45 1008.0
20260503173439 7 321 16.1 16.1 0.00 0.00 0.00 46 1007.6
20260503172936 7 253 9.7 14.5 0.00 0.00 0.00 43 1007.6
20260503172434 7 249 4.8 12.9 0.00 0.00 0.00 44 1007.8
20260503171930 7 297 12.9 17.7 0.00 0.00 0.00 43 1007.8
20260503171427 7 236 11.3 14.5 0.00 0.00 0.00 42 1007.7
20260503170925 7 243 9.7 22.5 0.00 0.00 0.00 44 1008.0
20260503170420 7 221 6.4 9.7 0.00 0.00 0.00 47 1008.0